Flag for Germany Weather past 2 weeks in Dorsten, North Rhine-Westphalia, Germany

Now
48 °F

Light freezing rain. Low clouds.


Feels Like: 45 °F
Forecast: 44 / 51 °F
Wind: 6 mph from Southwest

Location: Essen

Current Time: Mar 28, 2015 at 3:58:27 PM

Latest Report: Mar 28, 2015 at 3:00 PM


Visibility: 4 mi

Pressure: 29.96 "Hg

Humidity: 90%

Dew point: 45 °F

Location of DorstenLocation

Historic Weather in Dorsten — Graph

°F

Dorsten temperature yesterday

Maximum temperature yesterday: 47 °F (at 2:00 PM)
Minimum temperature yesterday: 39 °F (at 11:00 PM)
Average temperature yesterday: 43 °F

Past Weeks' High & Low Weather Summary

 TemperatureHumidityPressure
High62 °F (Mar 17, 3:00 PM)100% (Mar 19, 12:00 AM)30.39 "Hg (Mar 19, 12:00 AM)
Low33 °F (Mar 14, 7:00 AM)39% (Mar 17, 3:00 PM)29.65 "Hg (Mar 25, 3:00 AM)
Average43 °F80%30.13 "Hg
* Reported Mar 13 2:00 PM — Mar 28 2:00 PM, Dorsten, Weather by CustomWeather, © 2015

Note: Actual official high and low records may vary slightly from our data, if they occured in-between our weather recording intervals... More about our weather records

Advertising

Dorsten weather history for previous 24 hours

 ConditionsComfort  
Time TempWeatherWind HumidityBarometerVisibility
2:00 PM
Sat, Mar 28
50 °FLight rain. Overcast.7 mph76%29.99 "Hg9 mi
1:00 PM51 °FLight rain. Overcast.6 mph58%30.01 "Hg15 mi
12:00 PM52 °FOvercast.6 mph56%30.04 "Hg15 mi
11:00 AM51 °FOvercast.5 mph59%30.06 "Hg15 mi
10:00 AM47 °FSunny.6 mph67%30.10 "Hg13 mi
9:00 AM43 °FOvercast.5 mph74%30.14 "Hg11 mi
8:00 AM40 °FPartly sunny.2 mph81%30.15 "Hg7 mi
7:00 AM37 °FSunny.2 mph88%30.17 "Hg7 mi
6:00 AM37 °FSunny.2 mph90%30.18 "Hg6 mi
5:00 AM36 °FFog.1 mph93%30.19 "Hg4 mi
4:00 AM38 °FPassing clouds.1 mph90%30.21 "Hg6 mi
3:00 AM38 °FPassing clouds.1 mph88%30.22 "Hg6 mi
2:00 AM38 °FPassing clouds.2 mph88%30.22 "Hg7 mi
1:00 AM38 °FOvercast.1 mph90%30.23 "Hg7 mi
12:00 AM39 °FPassing clouds.1 mph88%30.23 "Hg9 mi
11:00 PM
Fri, Mar 27
39 °FPassing clouds.1 mph86%30.22 "Hg11 mi
10:00 PM40 °FClear.1 mph81%30.21 "Hg14 mi
9:00 PM43 °FOvercast.2 mph76%30.21 "Hg18 mi
8:00 PM44 °FOvercast.3 mph72%30.19 "Hg19 mi
7:00 PM45 °FOvercast.3 mph71%30.16 "Hg22 mi
6:00 PM46 °FOvercast.5 mph67%30.14 "Hg19 mi
5:00 PM46 °FOvercast.5 mph65%30.12 "Hg22 mi
4:00 PM47 °FOvercast.6 mph63%30.09 "Hg25 mi
3:00 PM47 °FOvercast.7 mph65%30.07 "Hg22 mi
Weather by CustomWeather, © 2015

See weather overviewHow to use our weather pages